OE8NDR-11 Weather Reports


Display with metric or nautical units.
time (UTC)temp
F
wind
direction
speed
MPH
gust
MPH
rain 1hr
in
rain 24hr
in
rain mn
in
humidity
%
barometer
mb
20260831110146 90 271 7.0 13.0 0.00 0.00 0.00 64 1013.5
20260831105646 90 257 6.0 10.0 0.00 0.00 0.00 62 1013.5
20260831105146 90 261 6.0 10.0 0.00 0.00 0.00 61 1013.6
20260831104646 89 257 6.0 10.0 0.00 0.00 0.00 61 1013.6
20260831104146 89 275 6.0 11.0 0.00 0.00 0.00 60 1013.6
20260831103646 89 309 6.0 10.0 0.00 0.00 0.00 62 1013.6
20260831103153 89 278 6.0 9.0 0.00 0.00 0.00 63 1013.6
20260831102646 89 267 8.0 11.0 0.00 0.00 0.00 63 1013.8
20260831102146 89 303 8.0 13.0 0.00 0.00 0.00 63 1013.8
20260831101646 89 265 6.0 12.0 0.00 0.00 0.00 63 1013.7
20260831101146 89 272 5.0 10.0 0.00 0.00 0.00 63 1013.8
20260831100646 89 242 6.0 10.0 0.00 0.00 0.00 61 1013.7
20260831100146 89 271 7.0 11.0 0.00 0.00 0.00 63 1013.8
20260831095646 89 276 8.0 11.0 0.00 0.00 0.00 62 1013.8
20260831095146 89 254 6.0 12.0 0.00 0.00 0.00 61 1013.8
20260831094646 90 267 5.0 10.0 0.00 0.00 0.00 60 1013.8
20260831094146 90 278 4.0 9.0 0.00 0.00 0.00 60 1013.8
20260831093646 89 310 4.0 7.0 0.00 0.00 0.00 57 1013.8
20260831093146 89 344 5.0 9.0 0.00 0.00 0.00 57 1013.9
20260831092646 89 292 7.0 11.0 0.00 0.00 0.00 58 1013.9
20260831092146 89 305 6.0 11.0 0.00 0.00 0.00 56 1014.0
20260831091646 89 279 4.0 8.0 0.00 0.00 0.00 60 1013.9
20260831091146 88 279 6.0 9.0 0.00 0.00 0.00 58 1014.1
20260831090648 88 300 6.0 10.0 0.00 0.00 0.00 59 1014.0
20260831090146 88 281 6.0 9.0 0.00 0.00 0.00 58 1014.1
20260831085646 88 272 6.0 9.0 0.00 0.00 0.00 59 1014.0
20260831085146 88 292 5.0 8.0 0.00 0.00 0.00 59 1014.0
20260831084646 88 288 5.0 9.0 0.00 0.00 0.00 59 1014.0
20260831084146 88 287 5.0 8.0 0.00 0.00 0.00 58 1014.1
20260831083646 88 277 3.0 8.0 0.00 0.00 0.00 59 1014.0
20260831083146 88 271 2.0 5.0 0.00 0.00 0.00 58 1014.0
20260831082646 88 311 1.0 4.0 0.00 0.00 0.00 58 1014.0
20260831082146 89 265 0.0 4.0 0.00 0.00 0.00 58 1014.0
20260831081646 89 51 0.0 0.0 0.00 0.00 0.00 58 1014.0
20260831081146 89 51 0.0 0.0 0.00 0.00 0.00 61 1014.0
20260831080646 88 50 1.0 2.0 0.00 0.00 0.00 60 1014.1
20260831080146 88 320 1.0 1.0 0.00 0.00 0.00 62 1014.0
20260831075646 88 258 0.0 3.0 0.00 0.00 0.00 60 1014.0
20260831075146 87 342 0.0 0.0 0.00 0.00 0.00 61 1014.0
20260831074646 87 342 0.0 0.0 0.00 0.00 0.00 61 1014.1
20260831074146 87 342 0.0 0.0 0.00 0.00 0.00 61 1014.1
20260831073646 87 70 0.0 0.0 0.00 0.00 0.00 62 1014.0
20260831073146 86 70 0.0 0.0 0.00 0.00 0.00 61 1014.0
20260831072646 86 71 0.0 0.0 0.00 0.00 0.00 61 1014.0
20260831072146 86 71 0.0 0.0 0.00 0.00 0.00 63 1014.0
20260831071646 85 71 0.0 0.0 0.00 0.00 0.00 62 1014.0
20260831071146 85 71 0.0 0.0 0.00 0.00 0.00 65 1014.0
20260831070646 84 71 0.0 0.0 0.00 0.00 0.00 66 1014.1
20260831070146 83 71 0.0 0.0 0.00 0.00 0.00 70 1014.1
20260831065646 83 71 0.0 0.0 0.00 0.00 0.00 70 1014.1
20260831065146 82 71 0.0 0.0 0.00 0.00 0.00 71 1014.2
20260831064646 80 71 0.0 0.0 0.00 0.00 0.00 72 1014.2
20260831064146 80 71 0.0 0.0 0.00 0.00 0.00 72 1014.1
20260831063646 79 71 0.0 0.0 0.00 0.00 0.00 72 1014.1
20260831063146 79 70 0.0 0.0 0.00 0.00 0.00 71 1014.1
20260831062646 79 67 0.0 0.0 0.00 0.00 0.00 71 1014.2
20260831062146 79 66 0.0 0.0 0.00 0.00 0.00 71 1014.2
20260831061646 79 66 0.0 0.0 0.00 0.00 0.00 70 1014.2
20260831061146 79 65 0.0 0.0 0.00 0.00 0.00 71 1014.2
20260831060646 78 17 0.0 0.0 0.00 0.00 0.00 72 1014.2
20260831060146 78 17 0.0 0.0 0.00 0.00 0.00 73 1014.2
20260831055646 78 17 0.0 0.0 0.00 0.00 0.00 73 1014.2
20260831055146 77 17 0.0 0.0 0.00 0.00 0.00 71 1014.3
20260831054646 77 15 0.0 0.0 0.00 0.00 0.00 72 1014.2
20260831054146 76 348 0.0 0.0 0.00 0.00 0.00 68 1014.1
20260831053646 75 297 0.0 0.0 0.00 0.00 0.00 69 1014.1
20260831053146 75 296 1.0 0.0 0.00 0.00 0.00 71 1014.2
20260831052646 74 296 1.0 2.0 0.00 0.00 0.00 71 1014.1
20260831052146 73 296 1.0 3.0 0.00 0.00 0.00 72 1014.1
20260831051646 73 273 0.0 0.0 0.00 0.00 0.00 75 1014.1
20260831051146 72 273 0.0 0.0 0.00 0.00 0.00 78 1014.0
20260831050646 71 273 0.0 0.0 0.00 0.00 0.00 82 1013.9
20260831045647 70 273 0.0 0.0 0.00 0.00 0.00 85 1014.0
20260831045147 70 273 0.0 1.0 0.00 0.00 0.00 87 1013.9
20260831044646 69 273 1.0 1.0 0.00 0.00 0.00 90 1013.9
20260831044147 69 274 2.0 3.0 0.00 0.00 0.00 90 1013.8
20260831043646 70 273 2.0 4.0 0.00 0.00 0.00 91 1013.8
20260831043147 70 272 2.0 4.0 0.00 0.00 0.00 91 1013.9
20260831042647 70 272 1.0 2.0 0.00 0.00 0.00 90 1013.8
20260831042147 71 272 2.0 3.0 0.00 0.00 0.00 90 1013.8
20260831041647 71 272 2.0 3.0 0.00 0.00 0.00 90 1013.9
20260831041147 71 273 2.0 4.0 0.00 0.00 0.00 91 1013.8
20260831040647 70 288 3.0 4.0 0.00 0.00 0.00 91 1013.8
20260831040147 70 309 2.0 4.0 0.00 0.00 0.00 91 1013.8
20260831035647 70 321 1.0 4.0 0.00 0.00 0.00 91 1013.7
20260831035147 70 9 0.0 0.0 0.00 0.00 0.00 91 1013.6
20260831034647 70 5 0.0 0.0 0.00 0.00 0.00 91 1013.6
20260831034147 71 5 0.0 0.0 0.00 0.00 0.00 91 1013.5
20260831033647 71 5 0.0 0.0 0.00 0.00 0.00 91 1013.5
20260831033147 71 25 0.0 0.0 0.00 0.00 0.00 91 1013.8
20260831032647 71 25 0.0 0.0 0.00 0.00 0.00 91 1013.9
20260831032147 71 25 0.0 0.0 0.00 0.00 0.00 91 1013.7
20260831031647 71 25 0.0 0.0 0.00 0.00 0.00 91 1013.8
20260831031147 71 25 0.0 0.0 0.00 0.00 0.00 91 1013.8
20260831030647 71 25 0.0 0.0 0.00 0.00 0.00 91 1013.7
20260831030147 71 25 0.0 0.0 0.00 0.00 0.00 91 1013.7
20260831025647 72 25 0.0 0.0 0.00 0.00 0.00 91 1013.6
20260831025147 72 38 0.0 0.0 0.00 0.00 0.00 91 1013.6
20260831024647 72 101 0.0 0.0 0.00 0.00 0.00 91 1013.5
20260831024147 71 101 0.0 0.0 0.00 0.00 0.00 91 1013.6
20260831023647 71 103 0.0 0.0 0.00 0.00 0.00 90 1013.5
20260831023147 71 103 0.0 0.0 0.00 0.00 0.00 90 1013.6
20260831022647 72 103 0.0 0.0 0.00 0.00 0.00 90 1013.6
20260831022147 72 103 0.0 0.0 0.00 0.00 0.00 91 1013.6
20260831021647 72 103 0.0 0.0 0.00 0.00 0.00 91 1013.6
20260831021147 72 103 0.0 0.0 0.00 0.00 0.00 91 1013.5
20260831020647 72 103 0.0 0.0 0.00 0.00 0.00 91 1013.5
20260831020147 72 103 0.0 0.0 0.00 0.00 0.00 91 1013.5
20260831015647 72 103 0.0 0.0 0.00 0.00 0.00 91 1013.5
20260831015147 72 103 0.0 0.0 0.00 0.00 0.00 91 1013.5
20260831014647 72 103 0.0 0.0 0.00 0.00 0.00 91 1013.5
20260831014147 72 103 1.0 1.0 0.00 0.00 0.00 91 1013.5
20260831013654 71 103 1.0 2.0 0.00 0.00 0.00 91 1013.5
20260831013147 72 103 1.0 2.0 0.00 0.00 0.00 90 1013.7
20260831012647 72 103 2.0 4.0 0.00 0.00 0.00 90 1013.7
20260831012147 72 103 3.0 4.0 0.00 0.00 0.00 90 1013.6
20260831011647 73 99 2.0 4.0 0.00 0.00 0.00 90 1013.6
20260831011147 73 101 0.0 3.0 0.00 0.00 0.00 90 1013.6
20260831010647 74 102 0.0 0.0 0.00 0.00 0.00 90 1013.6
20260831010147 74 102 0.0 0.0 0.00 0.00 0.00 91 1013.5
20260831005647 74 102 0.0 0.0 0.00 0.00 0.00 90 1013.6
20260831005147 74 101 1.0 1.0 0.00 0.00 0.00 90 1013.7
20260831004647 74 101 1.0 1.0 0.00 0.00 0.00 90 1013.5
20260831004147 75 101 1.0 2.0 0.00 0.00 0.00 91 1013.5
20260831003647 75 101 1.0 2.0 0.00 0.00 0.00 91 1013.5
20260831003147 74 101 0.0 2.0 0.00 0.00 0.00 91 1013.6
20260831002647 74 101 0.0 0.0 0.00 0.00 0.00 91 1013.6
20260831002147 73 101 0.0 0.0 0.00 0.00 0.00 91 1013.6
20260831001647 73 101 0.0 0.0 0.00 0.00 0.00 90 1013.6
20260831001147 73 101 0.0 0.0 0.00 0.00 0.00 90 1013.7
20260831000647 73 101 0.0 0.0 0.00 0.00 0.00 89 1013.7
20260831000147 73 101 0.0 1.0 0.00 0.00 0.00 89 1013.7
20260830235647 73 101 0.0 0.0 0.00 0.00 0.00 89 1013.7
20260830235147 73 101 0.0 0.0 0.00 0.00 0.00 89 1013.7
20260830234647 73 101 1.0 2.0 0.00 0.00 0.00 89 1013.7
20260830234147 73 101 1.0 3.0 0.00 0.00 0.00 89 1013.8
20260830233647 74 101 0.0 3.0 0.00 0.00 0.00 89 1013.8
20260830233147 74 137 0.0 0.0 0.00 0.00 0.00 89 1013.8
20260830232647 74 137 0.0 0.0 0.00 0.00 0.00 88 1013.8
20260830232147 75 137 0.0 0.0 0.00 0.00 0.00 89 1013.9
20260830231647 75 137 0.0 0.0 0.00 0.00 0.00 89 1013.9
20260830231147 75 137 0.0 0.0 0.00 0.00 0.00 89 1013.9
20260830230647 75 137 0.0 0.0 0.00 0.00 0.00 89 1013.9
20260830230147 75 137 0.0 0.0 0.00 0.00 0.00 89 1013.8
20260830225647 75 137 0.0 0.0 0.00 0.00 0.00 89 1013.9
20260830225147 75 137 0.0 0.0 0.00 0.00 0.00 88 1014.0
20260830224647 75 137 0.0 0.0 0.00 0.00 0.00 88 1013.9
20260830224147 75 137 0.0 0.0 0.00 0.00 0.00 89 1013.9
20260830223647 75 137 0.0 0.0 0.00 0.00 0.00 88 1013.9
20260830223147 75 137 0.0 0.0 0.00 0.00 0.00 89 1013.9
20260830222647 75 137 1.0 1.0 0.00 0.00 0.00 88 1013.8
20260830222147 75 137 1.0 2.0 0.00 0.00 0.00 88 1013.8
20260830221647 75 137 1.0 1.0 0.00 0.00 0.00 88 1013.9
20260830221147 75 137 2.0 3.0 0.00 0.00 0.00 88 1013.8
20260830220647 75 137 2.0 3.0 0.00 0.00 0.00 88 1013.9
20260830220147 75 137 2.0 3.0 0.00 0.00 0.00 88 1013.9
20260830215647 75 137 3.0 3.0 0.00 0.00 0.00 88 1013.9
20260830215147 76 148 4.0 5.0 0.00 0.00 0.00 88 1013.9
20260830214647 76 161 5.0 6.0 0.00 0.00 0.00 88 1013.9
20260830214147 76 142 5.0 8.0 0.00 0.00 0.00 88 1013.9
20260830213647 76 140 4.0 7.0 0.00 0.00 0.00 88 1013.9
20260830213147 76 137 4.0 5.0 0.00 0.00 0.00 88 1013.9
20260830212647 76 148 3.0 5.0 0.00 0.00 0.00 87 1013.8
20260830212147 77 157 2.0 3.0 0.00 0.00 0.00 87 1013.8
20260830211647 78 157 2.0 3.0 0.00 0.00 0.00 87 1013.8
20260830211147 79 345 2.0 3.0 0.00 0.00 0.00 86 1013.7
20260830210647 79 345 2.0 3.0 0.00 0.00 0.00 86 1013.7
20260830210147 79 329 3.0 3.0 0.00 0.00 0.00 86 1013.7
20260830205647 79 315 3.0 4.0 0.00 0.00 0.00 86 1013.6
20260830205147 79 301 4.0 5.0 0.00 0.00 0.00 86 1013.7
20260830204647 79 296 4.0 5.0 0.00 0.00 0.00 85 1013.6
20260830204147 79 297 4.0 6.0 0.00 0.00 0.00 85 1013.5
20260830203647 79 282 4.0 6.0 0.00 0.00 0.00 84 1013.5
20260830203147 79 285 4.0 6.0 0.00 0.00 0.00 84 1013.5
20260830202647 79 277 3.0 4.0 0.00 0.00 0.00 83 1013.5
20260830202147 79 276 2.0 4.0 0.00 0.00 0.00 83 1013.4
20260830201647 79 269 1.0 4.0 0.00 0.00 0.00 82 1013.2
20260830201147 79 271 0.0 3.0 0.00 0.00 0.00 81 1013.1
20260830200648 79 281 0.0 0.0 0.00 0.00 0.00 81 1013.2
20260830200147 80 306 0.0 0.0 0.00 0.00 0.00 80 1013.2
20260830195647 80 306 0.0 0.0 0.00 0.00 0.00 80 1013.1
20260830195147 79 309 0.0 0.0 0.00 0.00 0.00 79 1013.0
20260830194647 79 310 0.0 0.0 0.00 0.00 0.00 79 1013.1
20260830194148 79 310 0.0 0.0 0.00 0.00 0.00 79 1013.1
20260830193647 79 310 0.0 0.0 0.00 0.00 0.00 79 1013.2
20260830193147 79 310 0.0 0.0 0.00 0.00 0.00 79 1013.2
20260830192648 79 311 0.0 0.0 0.00 0.00 0.00 79 1013.2
20260830192148 79 311 0.0 0.0 0.00 0.00 0.00 78 1013.2
20260830191647 80 311 0.0 0.0 0.00 0.00 0.00 78 1013.3
20260830191147 80 311 0.0 0.0 0.00 0.00 0.00 77 1013.2
20260830190648 81 308 0.0 0.0 0.00 0.00 0.00 77 1013.3
20260830190148 81 308 0.0 0.0 0.00 0.00 0.00 77 1013.3
20260830185648 81 308 0.0 0.0 0.00 0.00 0.00 77 1013.2
20260830185148 81 53 0.0 0.0 0.00 0.00 0.00 77 1013.3
20260830184648 81 102 0.0 0.0 0.00 0.00 0.00 77 1013.2
20260830184148 81 103 0.0 0.0 0.00 0.00 0.00 76 1013.0
20260830183648 81 103 0.0 0.0 0.00 0.00 0.00 76 1013.0
20260830183148 81 103 0.0 0.0 0.00 0.00 0.00 76 1013.1
20260830182648 81 101 0.0 0.0 0.00 0.00 0.00 75 1013.1
20260830182148 81 101 0.0 0.0 0.00 0.00 0.00 75 1013.2
20260830181648 81 101 0.0 0.0 0.00 0.00 0.00 75 1013.3
20260830181148 82 101 0.0 0.0 0.00 0.00 0.00 75 1013.2
20260830180648 82 101 0.0 0.0 0.00 0.00 0.00 75 1013.2
20260830180148 82 101 2.0 2.0 0.00 0.00 0.00 74 1013.1
20260830175648 82 105 3.0 3.0 0.00 0.00 0.00 74 1013.1
20260830175148 83 104 3.0 4.0 0.00 0.00 0.00 73 1013.1
20260830174648 83 123 3.0 4.0 0.00 0.00 0.00 73 1013.0
20260830174148 83 107 2.0 4.0 0.00 0.00 0.00 72 1013.0
20260830173648 84 121 2.0 3.0 0.00 0.00 0.00 71 1012.9
20260830173148 84 116 3.0 6.0 0.00 0.00 0.00 71 1012.8
20260830172648 84 112 4.0 6.0 0.00 0.00 0.00 70 1012.9
20260830172148 85 96 3.0 6.0 0.00 0.00 0.00 68 1012.8
20260830171648 85 103 4.0 4.0 0.00 0.00 0.00 67 1012.8
20260830171148 85 109 4.0 6.0 0.00 0.00 0.00 67 1012.7
20260830170648 85 74 3.0 5.0 0.00 0.00 0.00 66 1012.7
20260830170148 85 73 3.0 5.0 0.00 0.00 0.00 66 1012.7
20260830165648 85 58 3.0 4.0 0.00 0.00 0.00 67 1012.6
20260830165148 85 57 3.0 4.0 0.00 0.00 0.00 67 1012.7
20260830164648 86 56 3.0 4.0 0.00 0.00 0.00 66 1012.7
20260830164148 86 64 2.0 4.0 0.00 0.00 0.00 66 1012.6
20260830163648 86 32 2.0 4.0 0.00 0.00 0.00 65 1012.7
20260830163148 87 74 2.0 4.0 0.00 0.00 0.00 65 1012.7
20260830162648 87 288 2.0 3.0 0.00 0.00 0.00 64 1012.7
20260830162148 87 277 3.0 3.0 0.00 0.00 0.00 64 1012.7
20260830161648 87 284 5.0 6.0 0.00 0.00 0.00 64 1012.6
20260830161148 88 298 6.0 11.0 0.00 0.00 0.00 63 1012.6
20260830160648 88 292 6.0 9.0 0.00 0.00 0.00 62 1012.5
20260830160148 88 280 8.0 12.0 0.00 0.00 0.00 63 1012.6
20260830155648 88 289 8.0 11.0 0.00 0.00 0.00 62 1012.5
20260830155148 88 293 8.0 12.0 0.00 0.00 0.00 61 1012.6
20260830154648 89 274 8.0 11.0 0.00 0.00 0.00 61 1012.6
20260830154148 89 260 7.0 11.0 0.00 0.00 0.00 60 1012.5
20260830153648 90 275 6.0 11.0 0.00 0.00 0.00 59 1012.5
20260830153148 90 308 7.0 11.0 0.00 0.00 0.00 58 1012.5
20260830152648 90 271 7.0 11.0 0.00 0.00 0.00 57 1012.5
20260830152148 91 277 7.0 10.0 0.00 0.00 0.00 54 1012.5
20260830151648 90 287 7.0 9.0 0.00 0.00 0.00 55 1012.4
20260830151148 91 273 8.0 12.0 0.00 0.00 0.00 56 1012.4
20260830150648 91 276 8.0 12.0 0.00 0.00 0.00 55 1012.4
20260830150148 91 271 9.0 13.0 0.00 0.00 0.00 52 1012.5
20260830145648 91 281 8.0 14.0 0.00 0.00 0.00 50 1012.6
20260830145202 92 262 7.0 12.0 0.00 0.00 0.00 49 1012.6
20260830144648 92 244 7.0 11.0 0.00 0.00 0.00 49 1012.5
20260830144148 92 285 8.0 12.0 0.00 0.00 0.00 50 1012.6
20260830143648 93 271 8.0 12.0 0.00 0.00 0.00 47 1012.7
20260830143148 93 265 9.0 13.0 0.00 0.00 0.00 46 1012.6
20260830142648 93 292 8.0 12.0 0.00 0.00 0.00 46 1012.6
20260830142148 93 286 7.0 12.0 0.00 0.00 0.00 47 1012.6
20260830141648 94 264 7.0 12.0 0.00 0.00 0.00 47 1012.5
20260830141148 94 279 7.0 10.0 0.00 0.00 0.00 48 1012.5
20260830140648 94 256 9.0 12.0 0.00 0.00 0.00 46 1012.5
20260830140148 94 266 8.0 12.0 0.00 0.00 0.00 46 1012.5
20260830135648 95 284 8.0 11.0 0.00 0.00 0.00 45 1012.5
20260830135148 95 241 7.0 12.0 0.00 0.00 0.00 46 1012.5
20260830134648 94 242 7.0 11.0 0.00 0.00 0.00 44 1012.5
20260830134148 94 264 8.0 11.0 0.00 0.00 0.00 45 1012.6
20260830133648 94 265 8.0 11.0 0.00 0.00 0.00 47 1012.5
20260830133148 94 251 8.0 13.0 0.00 0.00 0.00 47 1012.5
20260830132648 94 272 9.0 12.0 0.00 0.00 0.00 47 1012.6
20260830132148 94 275 9.0 12.0 0.00 0.00 0.00 47 1012.6
20260830131648 94 272 9.0 12.0 0.00 0.00 0.00 49 1012.8
20260830131148 94 273 9.0 14.0 0.00 0.00 0.00 46 1012.8
20260830130648 94 261 9.0 13.0 0.00 0.00 0.00 46 1012.9
20260830130148 94 283 8.0 16.0 0.00 0.00 0.00 46 1013.0
20260830125648 95 284 6.0 10.0 0.00 0.00 0.00 46 1013.0
20260830125148 95 235 7.0 11.0 0.00 0.00 0.00 44 1013.0
20260830124648 95 297 7.0 13.0 0.00 0.00 0.00 45 1013.1
20260830124148 94 274 8.0 13.0 0.00 0.00 0.00 47 1012.8
20260830123648 94 300 9.0 13.0 0.00 0.00 0.00 48 1013.0
20260830123148 94 269 9.0 13.0 0.00 0.00 0.00 46 1013.1
20260830122648 95 289 8.0 13.0 0.00 0.00 0.00 44 1013.3
20260830122148 95 252 7.0 13.0 0.00 0.00 0.00 45 1013.3
20260830121648 95 251 6.0 12.0 0.00 0.00 0.00 48 1013.3
20260830121148 95 44 6.0 12.0 0.00 0.00 0.00 50 1013.3
20260830120648 94 322 6.0 9.0 0.00 0.00 0.00 49 1013.4
20260830120148 94 318 6.0 10.0 0.00 0.00 0.00 51 1013.4
20260830115648 94 350 6.0 9.0 0.00 0.00 0.00 50 1013.4
20260830115148 93 304 5.0 8.0 0.00 0.00 0.00 54 1013.5
20260830114648 93 32 5.0 9.0 0.00 0.00 0.00 54 1013.6
20260830114148 93 346 5.0 9.0 0.00 0.00 0.00 52 1013.5
20260830113648 93 341 5.0 9.0 0.00 0.00 0.00 55 1013.4
20260830113148 93 329 5.0 9.0 0.00 0.00 0.00 53 1013.4
20260830112648 93 332 5.0 10.0 0.00 0.00 0.00 55 1013.6
20260830112148 93 311 5.0 9.0 0.00 0.00 0.00 55 1013.6
20260830111648 93 340 4.0 9.0 0.00 0.00 0.00 54 1013.8
20260830111148 93 336 3.0 9.0 0.00 0.00 0.00 53 1013.8
20260830110648 93 345 4.0 8.0 0.00 0.00 0.00 55 1013.8